User: anonymous   Login
Location: Unspecified
(0.0000°N, 0.0000°E)
Time: 03:11:11
(UTC+00:00)
Language:

FORMOSAT 3F - Orbit

View from above orbital plane
View from above orbital plane
View from above satellite
View from above satellite

Ground track
Ground track

The orbit data is extracted from the following two-line orbital elements,

1 29052U 06011F   18321.91860318 +.00000053 +00000-0 +36977-4 0  9991
2 29052 072.0346 264.2496 0042388 286.6582 072.9904 14.28805842657200
Epoch (UTC): 17 November 2018 22:02:47
Eccentricity: 0.0042388
inclination: 72.0346°
perigee height: 765 km
apogee height: 826 km
right ascension of ascending node: 264.2496°
argument of perigee: 286.6582°
revolutions per day: 14.28805842
mean anomaly at epoch: 72.9904°
orbit number at epoch: 65720

The dashed part of the orbit path shows where the satellite is in the earth's shadow,  

DLR